Surface/Precipitation History
03/31/2015 21:10  to  4/1/2015 21:10
Change End Date:
Date/Time
(MDT)
Sf
Temp Chem Water Layer Surface Precipitation
Sf Sub Frz Factor Pct Depth IcePct Cond Salin Type Intens Accum Rate
04/01/2015 21:01 Ice Warning 31.5F 45F 32F 5 0% - 100% 1 mhos 0 None None - -
04/01/2015 20:58 Ice Warning 31.5F 45F 32F 5 0% - 100% 1 mhos 0 None None - -
04/01/2015 20:47 Ice Warning 32.0F 45F 32F 5 0% - 100% 1 mhos 0 None None - -
04/01/2015 20:37 Wet 32.5F 45F 32F 5 0% 0.00 in 0% 1 mhos 0 None None - -
04/01/2015 20:30 Wet 32.5F 45F 32F 5 0% 0.00 in 0% 1 mhos 0 None None - -
04/01/2015 20:27 Wet 32.7F 45F 32F 5 0% 0.00 in 0% 1 mhos 0 None None - -
04/01/2015 20:17 Wet 33.3F 45F 32F 5 0% 0.00 in 0% 1 mhos 0 None None - -
04/01/2015 20:11 Wet 33.4F 45F 32F 5 0% 0.00 in 0% 1 mhos 0 None None - -
04/01/2015 20:07 Wet 33.8F 45F 32F 5 0% 0.00 in 0% 1 mhos 0 None None - -
04/01/2015 20:00 Wet 34.2F 45F 32F 5 0% 0.00 in 0% 2 mhos 0 None None - -
04/01/2015 19:57 Wet 34.3F 45F 32F 5 0% 0.00 in 0% 2 mhos 0 None None - -
04/01/2015 19:47 Wet 35.1F 45F 32F 5 0% 0.00 in 0% 2 mhos 0 None None - -
04/01/2015 19:37 Wet 35.8F 45F 32F 5 0% 0.00 in 0% 2 mhos 0 None None - -
04/01/2015 19:31 Wet 36.3F 45F 32F 5 0% 0.00 in 0% 2 mhos 0 None None - -
04/01/2015 19:27 Wet 36.7F 45F 32F 5 0% 0.00 in 0% 2 mhos 0 None None - -
Date/Time
(MDT)
Sf
Temp Chem Water Layer Surface Precipitation
Sf Sub Frz Factor Pct Depth IcePct Cond Salin Type Intens Accum Rate
04/01/2015 19:17 Wet 37.4F 45F 32F 5 0% 0.00 in 0% 2 mhos 0 None None - -
04/01/2015 19:07 Wet 38.5F 45F 32F 5 0% 0.00 in 0% 3 mhos 0 None None - -
04/01/2015 19:01 Wet 39.0F 45F 32F 5 0% 0.00 in 0% 3 mhos 0 None None - -
04/01/2015 18:57 Wet 39.4F 45F 32F 5 0% 0.00 in 0% 3 mhos 0 None None - -
04/01/2015 18:47 Wet 39.4F 45F 32F 5 0% 0.00 in 0% 3 mhos 0 None None - -
04/01/2015 18:37 Wet 39.4F 45F 32F 5 0% 0.00 in 0% 3 mhos 0 None None - -
04/01/2015 18:31 Wet 39.7F 45F 32F 5 0% 0.00 in 0% 3 mhos 0 None None - -
04/01/2015 18:27 Wet 40.5F 45F 32F 5 0% 0.00 in 0% 3 mhos 0 Yes - - -
04/01/2015 18:16 Wet 42.6F 45F 32F 5 0% 0.00 in 0% 4 mhos 0 None None - -
04/01/2015 18:06 Wet 42.8F 45F 32F 10 0% 0.00 in 0% 4 mhos 0 None None - -
04/01/2015 18:01 Wet 42.4F 45F 32F 25 0% 0.00 in 0% 4 mhos 0 None None - -
04/01/2015 17:56 Wet 43.2F 45F 32F 50 0% 0.00 in 0% 4 mhos 0 None None - -
04/01/2015 17:46 Wet 43.2F 45F 32F 80 0% 0.00 in 0% 4 mhos 0 None None - -
04/01/2015 17:36 Wet 45.1F 45F 32F 75 0% 0.00 in 0% 4 mhos 0 None None - -
04/01/2015 17:31 Wet 43.7F 45F 32F 70 0% 0.00 in 0% 4 mhos 0 None None - -
Date/Time
(MDT)
Sf
Temp Chem Water Layer Surface Precipitation
Sf Sub Frz Factor Pct Depth IcePct Cond Salin Type Intens Accum Rate
04/01/2015 17:26 Wet 44.4F 45F 32F 75 0% 0.00 in 0% 4 mhos 0 None None - -
04/01/2015 17:16 Wet 48.4F 45F 32F 60 0% 0.00 in 0% 4 mhos 0 None None - -
04/01/2015 17:11 Wet 47.1F 45F 32F 60 0% 0.00 in 0% 4 mhos 0 None None - -
04/01/2015 17:06 Wet 45.1F 45F 32F 50 0% 0.00 in 0% 4 mhos 0 Yes - - -
04/01/2015 17:00 Wet 41.4F 45F 32F 30 0% 0.00 in 0% 4 mhos 0 Yes - - -
04/01/2015 16:56 Wet 42.3F 45F 32F 55 0% 0.00 in 0% 4 mhos 0 Yes - - -
04/01/2015 16:46 Wet 40.3F 45F 32F 40 0% 0.00 in 0% 3 mhos 0 Yes - - -
04/01/2015 16:42 Wet 41.9F 45F 32F 45 0% 0.00 in 0% 4 mhos 0 Yes - - -
04/01/2015 16:36 Wet 43.0F 45F 32F 60 0% 0.00 in 0% 2 mhos 0 Yes - - -
04/01/2015 16:30 Wet 46.4F 45F 32F 5 0% 0.00 in 0% 0 mhos 0 Yes - - -
04/01/2015 16:26 Wet 47.3F 45F 32F 5 0% 0.00 in 0% 0 mhos 0 Yes - - -
04/01/2015 16:16 Dry 48.0F 45F - - - - - 0 mhos 0 Yes - - -
04/01/2015 16:11 Dry 48.9F 45F - - - - - 0 mhos 0 Yes - - -
04/01/2015 16:06 Dry 49.8F 45F - - - - - 0 mhos 0 None None - -
04/01/2015 16:01 Dry 50.4F 45F - - - - - 0 mhos 0 None None - -
Date/Time
(MDT)
Sf
Temp Chem Water Layer Surface Precipitation
Sf Sub Frz Factor Pct Depth IcePct Cond Salin Type Intens Accum Rate
04/01/2015 15:56 Dry 51.4F 45F - - - - - 0 mhos 0 None None - -
04/01/2015 15:45 Dry 50.4F 45F - - - - - 0 mhos 0 None None - -
04/01/2015 15:41 Dry 50.0F 45F - - - - - 0 mhos 0 None None - -
04/01/2015 15:35 Dry 49.3F 45F - - - - - 0 mhos 0 None None - -
04/01/2015 15:30 Dry 48.2F 45F - - - - - 0 mhos 0 None None - -
04/01/2015 15:25 Dry 46.9F 45F - - - - - 0 mhos 0 Yes - - -
04/01/2015 15:15 Dry 48.0F 45F - - - - - 1 mhos 0 None None - -
04/01/2015 15:05 Dry 51.8F 45F - - - - - 2 mhos 0 Yes - - -
04/01/2015 15:01 Dry 52.7F 45F - - - - - 2 mhos 0 None None - -
04/01/2015 14:55 Dry 55.2F 45F - - - - - 2 mhos 0 None None - -
04/01/2015 14:45 Wet 47.1F 45F 32F 5 0% 0.00 in 0% 3 mhos 0 None None - -
04/01/2015 14:41 Wet 46.2F 45F 32F 5 0% 0.00 in 0% 3 mhos 0 None None - -
04/01/2015 14:35 Wet 45.3F 45F 32F 5 0% 0.00 in 0% 3 mhos 0 None None - -
04/01/2015 14:31 Wet 44.8F 45F 32F 5 0% 0.00 in 0% 3 mhos 0 None None - -
04/01/2015 14:25 Wet 45.5F 45F 32F 5 0% 0.00 in 0% 4 mhos 0 None None - -
Date/Time
(MDT)
Sf
Temp Chem Water Layer Surface Precipitation
Sf Sub Frz Factor Pct Depth IcePct Cond Salin Type Intens Accum Rate
04/01/2015 14:15 Wet 45.9F 45F 32F 20 0% 0.00 in 0% 3 mhos 0 Yes - - -
04/01/2015 14:05 Wet 49.5F 45F 32F 30 0% 0.00 in 0% 2 mhos 0 Yes - - -
04/01/2015 14:01 Wet 51.4F 45F 32F 5 0% 0.00 in 0% 0 mhos 0 Yes - - -
04/01/2015 13:55 Wet 52.3F 45F 32F 5 0% 0.00 in 0% 0 mhos 0 None None - -
04/01/2015 13:45 Wet 51.3F 45F 32F 5 0% 0.00 in 0% 0 mhos 0 Yes - - -
04/01/2015 13:35 Dry 52.2F 45F - - - - - 0 mhos 0 None None - -
04/01/2015 13:30 Dry 52.3F 45F - - - - - 0 mhos 0 None None - -
04/01/2015 13:25 Dry 51.8F 45F - - - - - 0 mhos 0 None None - -
04/01/2015 13:15 Dry 53.6F 45F - - - - - 0 mhos 0 Yes - - -
04/01/2015 13:04 Dry 57.6F 45F - - - - - 0 mhos 0 Yes - - -
04/01/2015 13:01 Dry 55.8F 45F - - - - - 0 mhos 0 Yes - - -
04/01/2015 12:54 Dry 54.7F 45F - - - - - 1 mhos 0 None None - -
04/01/2015 12:44 Dry 56.8F 45F - - - - - 2 mhos 0 None None - -
04/01/2015 12:34 Dry 60.4F 45F - - - - - 2 mhos 0 None None - -
04/01/2015 12:31 Dry 63.7F 45F - - - - - 3 mhos 0 None None - -
Date/Time
(MDT)
Sf
Temp Chem Water Layer Surface Precipitation
Sf Sub Frz Factor Pct Depth IcePct Cond Salin Type Intens Accum Rate
04/01/2015 12:24 Dry 63.3F 45F - - - - - 3 mhos 0 None None - -
04/01/2015 12:14 Dry 60.6F 45F - - - - - 4 mhos 0 None None - -
04/01/2015 12:04 Dry 59.7F 45F - - - - - 4 mhos 0 None None - -
04/01/2015 12:01 Dry 55.2F 45F - - - - - 4 mhos 0 None None - -
04/01/2015 11:54 Wet 49.5F 45F 32F 5 0% 0.00 in 0% 4 mhos 0 None None - -
04/01/2015 11:44 Wet 51.1F 45F 32F 5 0% 0.00 in 0% 4 mhos 0 Yes - - -
04/01/2015 11:41 Wet 52.5F 45F 32F 5 0% 0.00 in 0% 4 mhos 0 None None - -
04/01/2015 11:34 Wet 55.2F 45F 32F 5 0% 0.00 in 0% 5 mhos 0 None None - -
04/01/2015 11:30 Wet 53.2F 45F 32F 10 0% 0.00 in 0% 5 mhos 0 None None - -
04/01/2015 11:24 Wet 54.7F 46F 32F 10 0% 0.00 in 0% 5 mhos 0 None None - -
04/01/2015 11:14 Wet 49.1F 45F 32F 60 0% 0.00 in 0% 5 mhos 0 None None - -
04/01/2015 11:04 Wet 41.2F 46F 32F 95 0% 0.00 in 0% 4 mhos 0 None None - -
04/01/2015 11:01 Wet 40.6F 46F 32F 95 0% 0.00 in 0% 4 mhos 0 None None - -
04/01/2015 10:53 Wet 41.2F 46F 32F 90 0% 0.00 in 0% 4 mhos 0 None None - -
04/01/2015 10:43 Wet 42.8F 46F 32F 85 0% 0.00 in 0% 4 mhos 0 None None - -
Date/Time
(MDT)
Sf
Temp Chem Water Layer Surface Precipitation
Sf Sub Frz Factor Pct Depth IcePct Cond Salin Type Intens Accum Rate
04/01/2015 10:33 Wet 40.3F 46F 32F 95 0% 0.00 in 0% 4 mhos 0 None None - -
04/01/2015 10:30 Wet 40.6F 46F 32F 75 0% 0.00 in 0% 4 mhos 0 None None - -
04/01/2015 10:23 Wet 42.8F 46F 32F 80 0% 0.00 in 0% 4 mhos 0 None None - -
04/01/2015 10:13 Wet 40.6F 46F 32F 90 0% 0.00 in 0% 4 mhos 0 None None - -
04/01/2015 10:03 Wet 40.1F 46F 32F 80 0% 0.00 in 0% 4 mhos 0 None None - -
04/01/2015 10:01 Wet 38.1F 46F 32F 95 0% 0.00 in 0% 4 mhos 0 None None - -
04/01/2015 09:53 Wet 36.9F 46F 32F 65 0% 0.00 in 0% 4 mhos 0 None None - -
04/01/2015 09:43 Wet 38.8F 46F 32F 75 0% 0.00 in 0% 4 mhos 0 None None - -
04/01/2015 09:41 Wet 37.9F 46F 32F 75 0% 0.00 in 0% 4 mhos 0 None None - -
04/01/2015 09:33 Wet 36.5F 46F 32F 65 0% 0.00 in 0% 3 mhos 0 None None - -
04/01/2015 09:30 Wet 36.3F 46F 32F 65 0% 0.00 in 0% 4 mhos 0 None None - -
04/01/2015 09:23 Wet 36.0F 46F 32F 70 0% 0.00 in 0% 3 mhos 0 None None - -
04/01/2015 09:13 Wet 36.0F 46F 32F 70 0% 0.00 in 0% 3 mhos 0 None None - -
04/01/2015 09:03 Wet 34.7F 46F 32F 80 0% 0.00 in 0% 3 mhos 0 None None - -
04/01/2015 09:01 Wet 33.8F 46F 32F 95 0% 0.00 in 0% 3 mhos 0 None None - -
Date/Time
(MDT)
Sf
Temp Chem Water Layer Surface Precipitation
Sf Sub Frz Factor Pct Depth IcePct Cond Salin Type Intens Accum Rate
04/01/2015 08:53 Wet 33.3F 46F 32F 90 0% 0.00 in 0% 3 mhos 0 None None - -
04/01/2015 08:43 Wet 33.3F 46F 32F 95 0% 0.00 in 0% 3 mhos 0 Yes - - -
04/01/2015 08:41 Wet 33.3F 46F 32F 95 0% 0.00 in 0% 3 mhos 0 Yes - - -
04/01/2015 08:33 Wet 33.8F 46F 32F 60 0% 0.00 in 0% 3 mhos 0 None None - -
04/01/2015 08:31 Wet 33.8F 46F 32F 95 0% 0.00 in 0% 3 mhos 0 Yes - - -
04/01/2015 08:22 Wet 33.8F 46F 32F 60 0% 0.00 in 0% 3 mhos 0 Yes - - -
04/01/2015 08:12 Wet 33.6F 46F 32F 95 0% 0.00 in 0% 3 mhos 0 Yes - - -
04/01/2015 08:11 Wet 33.6F 46F 32F 95 0% 0.00 in 0% 3 mhos 0 Yes - - -
04/01/2015 08:02 Wet 33.4F 46F 32F 95 0% 0.00 in 0% 2 mhos 0 Yes - - -
04/01/2015 08:00 Wet 33.4F 46F 32F 95 0% 0.00 in 0% 2 mhos 0 Yes - - -
04/01/2015 07:52 Wet 33.4F 46F 32F 40 0% 0.00 in 0% 2 mhos 0 Yes - - -
04/01/2015 07:42 Wet 33.6F 47F 32F 90 0% 0.00 in 0% 2 mhos 0 Yes - - -
04/01/2015 07:41 Wet 33.6F 47F 32F 95 0% 0.00 in 0% 2 mhos 0 Yes - - -
04/01/2015 07:32 Wet 33.3F 47F 32F 80 0% 0.00 in 0% 2 mhos 0 Yes - - -
04/01/2015 07:31 Wet 33.3F 47F 32F 95 0% 0.00 in 0% 2 mhos 0 Yes - - -
Date/Time
(MDT)
Sf
Temp Chem Water Layer Surface Precipitation
Sf Sub Frz Factor Pct Depth IcePct Cond Salin Type Intens Accum Rate
04/01/2015 07:22 Wet 32.9F 47F 32F 95 0% 0.00 in 0% 2 mhos 0 Yes - - -
04/01/2015 07:12 Wet 32.7F 47F 32F 95 0% 0.00 in 0% 3 mhos 0 None None - -
04/01/2015 07:11 Wet 32.7F 47F 32F 95 0% 0.00 in 0% 3 mhos 0 None None - -
04/01/2015 07:02 Wet 32.5F 47F 32F 95 0% 0.00 in 0% 3 mhos 0 None None - -
04/01/2015 07:00 Wet 32.5F 47F 32F 95 0% 0.00 in 0% 3 mhos 0 None None - -
04/01/2015 06:52 Wet 32.5F 47F 32F 95 0% 0.00 in 0% 3 mhos 0 Yes - - -
04/01/2015 06:42 Wet 32.5F 47F 32F 95 0% 0.00 in 0% 2 mhos 0 Yes - - -
04/01/2015 06:32 Wet 32.5F 47F 32F 95 0% 0.00 in 0% 1 mhos 0 Yes - - -
04/01/2015 06:31 Wet 32.5F 47F 32F 95 0% 0.00 in 0% 2 mhos 0 Yes - - -
04/01/2015 06:22 Wet 32.5F 47F 32F 95 0% 0.00 in 0% 4 mhos 0 Yes - - -
04/01/2015 06:12 Wet 32.9F 47F 32F 95 0% 0.00 in 0% 5 mhos 0 Yes - - -
04/01/2015 06:02 Wet 32.9F 47F 32F 95 0% 0.00 in 0% 5 mhos 0 Yes - - -
04/01/2015 06:00 Wet 32.9F 47F 32F 95 0% 0.00 in 0% 5 mhos 0 Yes - - -
04/01/2015 05:51 Wet 33.8F 47F 32F 95 0% 0.00 in 0% 4 mhos 0 Yes - - -
04/01/2015 05:41 Wet 34.2F 47F 32F 95 0% 0.00 in 0% 4 mhos 0 Yes - - -
Date/Time
(MDT)
Sf
Temp Chem Water Layer Surface Precipitation
Sf Sub Frz Factor Pct Depth IcePct Cond Salin Type Intens Accum Rate
04/01/2015 05:31 Wet 34.5F 47F 32F 95 0% 0.00 in 0% 4 mhos 0 Yes - - -
04/01/2015 05:30 Wet 34.2F 47F 32F 95 0% 0.00 in 0% 4 mhos 0 Yes - - -
04/01/2015 05:21 Wet 34.2F 47F 32F 95 0% 0.00 in 0% 4 mhos 0 Yes - - -
04/01/2015 05:11 Wet 33.8F 47F 32F 95 0% 0.00 in 0% 3 mhos 0 Yes - - -
04/01/2015 05:01 Wet 33.8F 47F 32F 95 0% 0.00 in 0% 4 mhos 0 Yes - - -
04/01/2015 05:00 Wet 33.8F 47F 32F 95 0% 0.00 in 0% 4 mhos 0 Yes - - -
04/01/2015 04:51 Wet 33.8F 47F 32F 95 0% 0.00 in 0% 3 mhos 0 Yes - - -
04/01/2015 04:41 Wet 33.8F 47F 32F 95 0% 0.00 in 0% 3 mhos 0 Yes - - -
04/01/2015 04:31 Wet 33.4F 47F 32F 95 0% 0.10 in 0% 2 mhos 0 Yes - - -
04/01/2015 04:30 Wet 33.6F 47F 32F 95 0% 0.00 in 0% 2 mhos 0 Yes - - -
04/01/2015 04:21 Wet 33.8F 47F 32F 95 0% 0.00 in 0% 2 mhos 0 Yes - - -
04/01/2015 04:11 Wet 33.1F 47F 32F 95 0% 0.00 in 0% 2 mhos 0 Yes - - -
04/01/2015 04:01 Wet 32.9F 47F 32F 95 0% 0.00 in 0% 1 mhos 0 Yes - - -
04/01/2015 04:01 Wet 32.9F 47F 32F 95 0% 0.00 in 0% 1 mhos 0 Yes - - -
04/01/2015 03:51 Wet 32.9F 47F 32F 45 0% 0.00 in 0% 0 mhos 0 Yes - - -
Date/Time
(MDT)
Sf
Temp Chem Water Layer Surface Precipitation
Sf Sub Frz Factor Pct Depth IcePct Cond Salin Type Intens Accum Rate
04/01/2015 03:41 Wet 32.9F 48F 32F 5 0% 0.00 in 0% 0 mhos 0 Yes - - -
04/01/2015 03:31 Wet 33.1F 48F 32F 85 0% 0.00 in 0% 1 mhos 0 Yes - - -
04/01/2015 03:30 Wet 33.1F 48F 32F 85 0% 0.00 in 0% 1 mhos 0 Yes - - -
04/01/2015 03:20 Wet 33.3F 48F 32F 70 0% 0.00 in 0% 1 mhos 0 Yes - - -
04/01/2015 03:10 Wet 33.8F 48F 32F 85 0% 0.00 in 0% 1 mhos 0 Yes - - -
04/01/2015 03:00 Wet 34.2F 48F 32F 95 0% 0.00 in 0% 1 mhos 0 Yes - - -
04/01/2015 03:00 Wet 34.2F 48F 32F 95 0% 0.00 in 0% 1 mhos 0 Yes - - -
04/01/2015 02:50 Wet 35.1F 48F 32F 55 0% 0.00 in 0% 1 mhos 0 Yes - - -
04/01/2015 02:40 Wet 35.2F 48F 32F 90 0% 0.00 in 0% 1 mhos 0 Yes - - -
04/01/2015 02:31 Wet 34.9F 48F 32F 75 0% 0.00 in 0% 1 mhos 0 Yes - - -
04/01/2015 02:30 Wet 34.9F 48F 32F 75 0% 0.00 in 0% 1 mhos 0 Yes - - -
04/01/2015 02:20 Wet 34.5F 48F 32F 95 0% 0.00 in 0% 1 mhos 0 Yes - - -
04/01/2015 02:10 Wet 34.2F 48F 32F 95 0% 0.00 in 0% 2 mhos 0 Yes - - -
04/01/2015 02:01 Wet 34.2F 48F 32F 95 0% 0.00 in 0% 2 mhos 0 Yes - - -
04/01/2015 02:00 Wet 34.2F 48F 32F 95 0% 0.00 in 0% 2 mhos 0 Yes - - -
Date/Time
(MDT)
Sf
Temp Chem Water Layer Surface Precipitation
Sf Sub Frz Factor Pct Depth IcePct Cond Salin Type Intens Accum Rate
04/01/2015 01:50 Wet 34.7F 48F 32F 95 0% 0.00 in 0% 2 mhos 0 Yes - - -
04/01/2015 01:40 Wet 36.1F 48F 32F 95 0% 0.00 in 0% 2 mhos 0 Yes - - -
04/01/2015 01:30 Wet 37.4F 48F 32F 95 0% 0.00 in 0% 2 mhos 0 Yes - - -
04/01/2015 01:30 Wet 37.4F 48F 32F 95 0% 0.00 in 0% 2 mhos 0 Yes - - -
04/01/2015 01:20 Wet 38.1F 48F 32F 70 0% 0.00 in 0% 2 mhos 0 Yes - - -
04/01/2015 01:11 Wet 37.8F 48F 32F 95 0% 0.00 in 0% 2 mhos 0 Yes - - -
04/01/2015 01:09 Wet 37.8F 48F 32F 95 0% 0.00 in 0% 2 mhos 0 Yes - - -
04/01/2015 00:59 Wet 37.2F 48F 32F 90 0% 0.00 in 0% 3 mhos 0 Yes - - -
04/01/2015 00:49 Wet 35.6F 48F 32F 15 0% 0.00 in 0% 3 mhos 0 Yes - - -
04/01/2015 00:41 Wet 38.8F 48F 32F 70 0% 0.00 in 0% 4 mhos 0 Yes - - -
04/01/2015 00:39 Wet 39.6F 48F 32F 85 0% 0.00 in 0% 4 mhos 0 Yes - - -
04/01/2015 00:29 Wet 41.2F 48F 32F 50 0% 0.00 in 0% 3 mhos 0 Yes - - -
04/01/2015 00:19 Wet 41.4F 48F 32F 65 0% 0.00 in 0% 3 mhos 0 Yes - - -
04/01/2015 00:11 Wet 41.9F 48F 32F 40 0% 0.00 in 0% 3 mhos 0 Yes - - -
04/01/2015 00:09 Wet 42.1F 48F 32F 15 0% 0.00 in 0% 3 mhos 0 Yes - - -
Date/Time
(MDT)
Sf
Temp Chem Water Layer Surface Precipitation
Sf Sub Frz Factor Pct Depth IcePct Cond Salin Type Intens Accum Rate
03/31/2015 23:59 Wet 42.3F 48F 32F 10 0% 0.00 in 0% 3 mhos 0 Yes - - -
03/31/2015 23:49 Wet 42.4F 48F 32F 35 0% 0.00 in 0% 3 mhos 0 None None - -
03/31/2015 23:46 Wet 42.4F 48F 32F 45 0% 0.00 in 0% 3 mhos 0 None None - -
03/31/2015 23:39 Wet 42.6F 48F 32F 55 0% 0.00 in 0% 3 mhos 0 None None - -
03/31/2015 23:29 Wet 43.0F 48F 32F 15 0% 0.00 in 0% 4 mhos 0 None None - -
03/31/2015 23:19 Wet 43.2F 48F 32F 15 0% 0.00 in 0% 4 mhos 0 None None - -
03/31/2015 23:09 Wet 43.5F 48F 32F 20 0% 0.00 in 0% 4 mhos 0 Yes - - -
03/31/2015 23:01 Wet 43.7F 48F 32F 15 0% 0.00 in 0% 4 mhos 0 Yes - - -
03/31/2015 22:59 Wet 43.9F 48F 32F 15 0% 0.00 in 0% 4 mhos 0 Yes - - -
03/31/2015 22:49 Wet 44.4F 48F 32F 10 0% 0.00 in 0% 3 mhos 0 Yes - - -
03/31/2015 22:38 Wet 45.0F 48F 32F 5 0% 0.00 in 0% 4 mhos 0 Yes - - -
03/31/2015 22:31 Wet 45.3F 48F 32F 5 0% 0.00 in 0% 4 mhos 0 Yes - - -
03/31/2015 22:28 Wet 45.5F 47F 32F 5 0% 0.00 in 0% 4 mhos 0 Yes - - -
03/31/2015 22:18 Wet 46.2F 48F 32F 5 0% 0.00 in 0% 3 mhos 0 Yes - - -
03/31/2015 22:08 Wet 47.5F 47F 32F 10 0% 0.00 in 0% 1 mhos 0 Yes - - -
Date/Time
(MDT)
Sf
Temp Chem Water Layer Surface Precipitation
Sf Sub Frz Factor Pct Depth IcePct Cond Salin Type Intens Accum Rate
03/31/2015 22:01 Dry 48.9F 47F - - - - - 0 mhos 0 None None - -
03/31/2015 21:58 Dry 49.3F 47F - - - - - 0 mhos 0 None None - -
03/31/2015 21:48 Dry 49.8F 47F - - - - - 0 mhos 0 None None - -
03/31/2015 21:38 Dry 50.5F 47F - - - - - 0 mhos 0 None None - -
03/31/2015 21:30 Dry 51.1F 47F - - - - - 0 mhos 0 None None - -
03/31/2015 21:28 Dry 51.1F 47F - - - - - 0 mhos 0 None None - -
03/31/2015 21:18 Dry 51.4F 47F - - - - - 0 mhos 0 None None - -
Change End Date:
Copyright © 1998-2005 Surface Systems, Inc.
All Rights Reserved
Send comments about the data to:
SCAN Web ® is a registered trademark of Surface Systems, Inc.
SCAN Web Version 5.6